TimeEDT,TemperatureF,Dew PointF,Humidity,Sea Level PressureIn,VisibilityMPH,Wind Direction,Wind SpeedMPH,Gust SpeedMPH,PrecipitationIn,Events,Conditions,WindDirDegrees,DateUTC
12:58 AM,57.2,53.8,88,30.01,10.0,NNE,2.3,-,N/A,,Overcast,20,2013-09-26 04:58:00
1:58 AM,56.3,54.7,94,30.01,10.0,NNE,3.5,-,N/A,,Overcast,30,2013-09-26 05:58:00
2:58 AM,55.8,54.9,97,30.01,10.0,ENE,3.5,-,N/A,,Overcast,60,2013-09-26 06:58:00
3:58 AM,55.4,54.7,97,30.01,10.0,NNE,2.3,-,N/A,,Overcast,20,2013-09-26 07:58:00
4:58 AM,55.6,52.9,91,30.02,10.0,North,3.5,-,N/A,,Overcast,360,2013-09-26 08:58:00
5:58 AM,54.9,52.3,91,30.02,10.0,North,4.6,-,N/A,,Overcast,360,2013-09-26 09:58:00
6:58 AM,53.6,51.1,91,30.04,10.0,North,5.8,-,N/A,,Overcast,350,2013-09-26 10:58:00
7:58 AM,54.3,50.2,86,30.05,10.0,NNW,4.6,-,N/A,,Overcast,340,2013-09-26 11:58:00
8:58 AM,55.8,47.8,75,30.07,10.0,NNE,5.8,-,N/A,,Overcast,20,2013-09-26 12:58:00
9:58 AM,57.9,46.6,66,30.07,10.0,NNE,5.8,-,N/A,,Mostly Cloudy,20,2013-09-26 13:58:00
10:58 AM,60.1,44.8,57,30.08,10.0,North,5.8,-,N/A,,Mostly Cloudy,10,2013-09-26 14:58:00
11:58 AM,60.8,45.7,57,30.08,10.0,North,5.8,-,N/A,,Overcast,360,2013-09-26 15:58:00
12:58 PM,61.3,45.5,56,30.08,10.0,North,4.6,-,N/A,,Scattered Clouds,360,2013-09-26 16:58:00
1:58 PM,63.1,46.4,54,30.06,10.0,NNE,6.9,-,N/A,,Mostly Cloudy,20,2013-09-26 17:58:00
2:58 PM,65.1,46.8,51,30.06,10.0,Variable,5.8,-,N/A,,Scattered Clouds,0,2013-09-26 18:58:00
3:58 PM,65.3,47.1,52,30.06,10.0,NNE,5.8,-,N/A,,Clear,30,2013-09-26 19:58:00
4:58 PM,65.3,46.4,50,30.06,10.0,North,5.8,-,N/A,,Clear,350,2013-09-26 20:58:00
5:58 PM,63.7,46.8,54,30.07,10.0,North,4.6,-,N/A,,Clear,350,2013-09-26 21:58:00
6:58 PM,53.8,51.8,93,30.08,10.0,NE,2.3,-,N/A,,Clear,50,2013-09-26 22:58:00
7:58 PM,52.0,51.4,98,30.10,10.0,North,2.3,-,N/A,,Clear,350,2013-09-26 23:58:00
8:58 PM,50.5,50.0,98,30.11,10.0,ENE,1.2,-,N/A,,Clear,60,2013-09-27 00:58:00
9:58 PM,46.9,46.6,99,30.11,10.0,NNE,2.3,-,N/A,,Partly Cloudy,20,2013-09-27 01:58:00
10:32 PM,48.2,48.2,100,30.11,2.5,NE,2.3,-,N/A,,Scattered Clouds,50,2013-09-27 02:32:00
10:33 PM,48.2,48.2,100,30.11,2.0,NE,2.3,-,N/A,,Scattered Clouds,50,2013-09-27 02:33:00
10:37 PM,48.2,48.2,100,30.11,2.5,NE,2.3,-,N/A,,Scattered Clouds,50,2013-09-27 02:37:00
10:38 PM,48.2,48.2,100,30.11,3.0,ENE,2.3,-,N/A,,Scattered Clouds,60,2013-09-27 02:38:00
10:58 PM,47.1,46.8,99,30.14,10.0,Calm,Calm,-,N/A,,Mostly Cloudy,0,2013-09-27 02:58:00
11:58 PM,49.8,49.6,99,30.14,10.0,North,1.2,-,N/A,,Overcast,10,2013-09-27 03:58:00